Torna al catalogo

STARLINK-34515

AttivoComunicazioniVLEO
NORAD 64712·PAYLOAD·🇺🇸 United States

Lanciato Jun 28, 2025 da Vandenberg Space Force Base

Loading…

Prossimi Passaggi (prossime 24 ore)

TLE

AggiornatoSource: CelesTrak SupGP

Epoca: Sep 14, 2026, 22:50 UTC

1 64712C 25142S   26257.95187500 -.00028131  00000+0 -97821-3 0  2574
2 64712  70.0011 195.7021 0003269 266.4134 281.0097 15.29605046    18

Traccia STARLINK-34515 in tempo reale con AllMySat

Download on the App Store